Stockton, CA

6:16 PM PDT on August 27, 2016 (GMT -0700)
Stockton Metro

Weather History for KSCK - October, 2012

Change the Weather History Date:

Monday, October 22, 2012

  Actual Average Record
Temperature  
Mean Temperature 58 °F -  
Max Temperature 63 °F 75 °F 88 °F (1964)
Min Temperature 52 °F 48 °F 36 °F (1949)
Degree Days  
Heating Degree Days 7 4  
Month to date heating degree days 31 44  
Since 1 July heating degree days 31 50  
Cooling Degree Days 0 1  
Month to date cooling degree days 75 51  
Year to date cooling degree days 1369 1317  
Growing Degree Days 8 (Base 50)    
Moisture  
Dew Point 49 °F    
Average Humidity 80    
Maximum Humidity 96    
Minimum Humidity 64    
Precipitation  
Precipitation 0.17 in 0.03 in 0.63 in (1973)
Month to date precipitation 0.20 0.46  
Year to date precipitation 6.68 9.79  
Since 1 July precipitation 0.21  
Snow  
Snow 0.00 in - 0.00 in (2002)
Month to date snowfall 0.0  
Since 1 July snowfall 0.0  
Since 1 September snowfall 0.0  
Snow Depth -    
Sea Level Pressure  
Sea Level Pressure 29.86 in    
Wind  
Wind Speed 9 mph (South)    
Max Wind Speed 24 mph    
Max Gust Speed 31 mph    
Visibility 9 miles    
Events Rain    
T = Trace of Precipitation, MM = Missing Value Source: NWS Daily Summary

Daily Weather History Graph

Daily Weather History Graph

Search for Another Location

Airport or City:

Trip Planner

Search our weather history database for the weather conditions in past years. The results will help you decide how hot, cold, wet, or windy it might be!

Date:

Astronomy

Oct. 22, 2012 Rise Set
Actual Time 7:20 AM PDT 6:17 PM PDT
Civil Twilight 6:54 AM PDT 6:43 PM PDT
Nautical Twilight 6:23 AM PDT 7:14 PM PDT
Astronomical Twilight 5:52 AM PDT 7:45 PM PDT
Moon 2:22 PM PDT (10/22) 12:20 AM PDT (10/22)
Length of Visible Light 11h 49m
Length of Day
10h 56m
First Quarter, 57% of the Moon is Illuminated
Oct 22
First Quarter
Oct 29
Full
Nov 6
Last Quarter
Nov 13
New
Nov 20
First Quarter

Hourly Weather History & Observations

Time (PDT) Temp. Dew Point Humidity Pressure Visibility Wind Dir Wind Speed Gust Speed Precip Events Conditions
12:55 AM 55.0 °F 48.9 °F 80% 29.84 in 10.0 mi West 8.1 mph - 0.00 in   Overcast
1:55 AM 54.0 °F 51.1 °F 90% 29.83 in 9.0 mi North 9.2 mph - 0.02 in Rain Light Rain
2:55 AM 53.1 °F 50.0 °F 89% 29.86 in 10.0 mi North 4.6 mph - 0.00 in Rain Light Rain
3:55 AM 52.0 °F 50.0 °F 93% 29.83 in 10.0 mi East 6.9 mph - 0.02 in   Overcast
4:55 AM 53.1 °F 48.9 °F 86% 29.78 in 10.0 mi East 10.4 mph - 0.00 in   Overcast
5:55 AM 52.0 °F 50.0 °F 93% 29.78 in 10.0 mi SE 9.2 mph - N/A   Overcast
6:55 AM 54.0 °F 48.0 °F 80% 29.76 in 10.0 mi SE 12.7 mph - N/A   Overcast
7:55 AM 55.9 °F 46.9 °F 72% 29.75 in 10.0 mi SSE 19.6 mph 28.8 mph 0.00 in Rain Light Rain
8:55 AM 54.0 °F 48.9 °F 83% 29.78 in 10.0 mi SSE 17.3 mph 23.0 mph 0.00 in   Overcast
9:55 AM 55.0 °F 50.0 °F 83% 29.83 in 5.0 mi South 11.5 mph - 0.00 in Rain Rain
10:17 AM 53.6 °F 51.8 °F 94% 29.84 in 2.0 mi SSE 8.1 mph - 0.05 in Rain Light Rain
10:55 AM 55.0 °F 52.0 °F 89% 29.86 in 3.0 mi South 11.5 mph - 0.10 in Rain Light Rain
11:55 AM 54.0 °F 52.0 °F 93% 29.88 in 5.0 mi SSW 13.8 mph - 0.01 in Rain Light Rain
12:55 PM 54.0 °F 52.0 °F 93% 29.89 in 4.0 mi South 10.4 mph - 0.02 in Rain Light Rain
1:55 PM 55.9 °F 53.1 °F 90% 29.88 in 10.0 mi SSE 16.1 mph 21.9 mph 0.00 in   Mostly Cloudy
2:55 PM 60.8 °F 51.8 °F 72% 29.87 in 10.0 mi SE 13.8 mph - N/A   Scattered Clouds
3:55 PM 61.0 °F 48.9 °F 64% 29.87 in 10.0 mi South 6.9 mph - N/A   Scattered Clouds
4:55 PM 60.1 °F 46.9 °F 62% 29.87 in 10.0 mi South 4.6 mph - N/A   Mostly Cloudy
5:55 PM 62.1 °F 46.9 °F 58% 29.88 in 10.0 mi SW 8.1 mph - N/A   Overcast
6:55 PM 57.0 °F 43.0 °F 59% 29.89 in 10.0 mi WSW 8.1 mph - N/A   Scattered Clouds
7:55 PM 55.0 °F 45.0 °F 69% 29.91 in 10.0 mi West 5.8 mph - N/A   Mostly Cloudy
8:55 PM 53.1 °F 46.0 °F 77% 29.92 in 10.0 mi South 5.8 mph - N/A   Mostly Cloudy
9:55 PM 53.1 °F 46.9 °F 80% 29.93 in 10.0 mi SSW 3.5 mph - N/A   Overcast
10:55 PM 54.0 °F 48.9 °F 83% 29.93 in 10.0 mi South 5.8 mph - N/A   Overcast
11:55 PM 54.0 °F 51.1 °F 90% 29.94 in 10.0 mi South 4.6 mph - N/A   Overcast